Hanford, WA
on Tuesday, December 11, 2012

Tuesday
Previous Day Next Day
Daily Summary
 ActualAverage (KMWH)Record (KMWH)
Temperature
Mean Temperature °F 29°F  
Max Temperature 36°F 35°F 53°F (1999)
Min Temperature 29°F 23°F 6°F (2005)
Degree Days
Heating Degree Days 32 36  
Month to date heating degree days 383  
Since 1 July heating degree days 1844  
Cooling Degree Days 0 0  
Month to date cooling degree days 0  
Year to date cooling degree days 615  
Moisture
Dew Point 32°F   
Average Humidity 97    
Maximum Humidity 100    
Minimum Humidity 88    
Precipitation
Precipitation 0.01 in 0.03 in 0.35 in (2010)
Month to date precipitation 0.40  
Year to date precipitation 8.07  
Wind
Wind Speed 4 mph   
Max Wind Speed 7 mph   
Max Gust Speed mph   
Visibility 6 miles   
Events Fog , Rain   

Key: T is trace of precipitation, MM is missing value
Source: NWS Daily Summary
Time(PST)TemperatureDew PointHumidity Pressure Visibility Wind DirectionWind SpeedGust SpeedPrecipitationEvents Conditions
12:50 AM 31.5°F 31.5°F 100% 30.01 in 0.1 miles ESE 3.5 mph - N/A Fog Light Freezing Fog
1:50 AM 31.8°F 31.8°F 100% 29.99 in 0.1 miles North 5.8 mph - N/A Fog Light Freezing Fog
2:50 AM 30.0°F 30.0°F 100% 29.95 in 0.1 miles SW 4.6 mph - N/A Fog Light Freezing Fog
3:50 AM 29.7°F 29.7°F 100% 29.91 in 0.1 miles North 4.6 mph - N/A Fog Light Freezing Fog
4:50 AM 29.8°F 29.8°F 100% 29.87 in 0.1 miles North 2.3 mph - N/A Fog Light Freezing Fog
5:50 AM 29.7°F 29.7°F 100% 29.83 in 0.1 miles NE 2.3 mph - N/A Fog Light Freezing Fog
6:50 AM 29.7°F 29.7°F 100% 29.81 in 0.2 miles WNW 5.8 mph - N/A Fog Light Freezing Fog
7:50 AM 30.0°F 30.0°F 100% 29.79 in 0.1 miles NW 4.6 mph - N/A Fog Light Freezing Fog
8:50 AM 30.7°F 30.7°F 100% 29.75 in 0.2 miles WNW 3.5 mph - N/A Fog Light Freezing Fog
9:50 AM 31.5°F 31.5°F 100% 29.75 in 2.0 miles NNW 4.6 mph - N/A   Mist
10:50 AM 31.8°F 31.6°F 99% 29.72 in 15.0 miles WNW 2.3 mph - N/A   Overcast
11:50 AM 32.7°F 32.5°F 99% 29.68 in 2.0 miles NNE 5.8 mph - N/A   Overcast
12:50 PM 34.5°F 34.0°F 98% 29.66 in 15.0 miles West 4.6 mph - N/A   Overcast
1:50 PM 36.1°F 35.1°F 96% 29.62 in 15.0 miles West 2.3 mph - N/A   Overcast
2:50 PM 35.8°F 32.5°F 88% 29.62 in 15.0 miles ENE 4.6 mph - N/A   Overcast
3:50 PM 35.8°F 32.5°F 88% 29.60 in 15.0 miles SSW 2.3 mph - 0.00 in Rain Light Rain
4:50 PM 34.7°F 32.2°F 91% 29.58 in 15.0 miles NE 5.8 mph - 0.00 in   Overcast
5:50 PM 34.7°F 32.5°F 92% 29.58 in 15.0 miles NNE 3.5 mph - N/A   Overcast
6:50 PM 35.6°F 32.5°F 89% 29.58 in 15.0 miles NW 4.6 mph - 0.01 in Rain Light Rain
10:50 PM 31.6°F 31.6°F 100% 29.59 in 0.2 miles WNW 6.9 mph - N/A Fog Light Freezing Fog
11:50 PM 34.0°F 32.4°F 94% 29.59 in 12.0 miles WNW 6.9 mph - N/A   Overcast
Moon Phase
Dec. 11 Dec. 13 Dec. 20 Dec. 28 Jan. 04
Sunrise:07:32 AM (PST) Moon Rise:05:30 AM (PST)12/11
Sunset:04:10 PM (PST) Moon Set:02:56 PM (PST)12/11

Copyright © 2014 The Weather Underground, Inc.